IRIDIUM 91

Last updated on Wed Nov 29 2017 00:19:03 GMT+0000 (Greenwich Mean Time)

1 27372U 02005A 17332.14273940 .00000165 00000-0 51786-4 0 9997 2 27372 86.3998 218.6288 0001576 89.4210 63.9813 14.34219049835120
UTC large
Height (km)
Speed (km/s)
/
Latitude / Longitude
Inclination (degrees)
Orbital Period (minutes)
Azimuth
Elevation
Range (km)
Doppler Factor

Next 0 passes for location: London (51.5072 / 0.1276)

Sorry there are no passes over London.